EW3861 Weather Reports


time (UTC)temp
F
wind
direction
speed
knots
gust
knots
rain 1hr
in
rain 24hr
in
rain mn
in
humidity
%
barometer
mb
20260904081547 63 297 0.0 0.0 0.00 0.00 0.00 96 1008.4
20260904080049 63 297 0.0 0.0 0.00 0.00 0.00 96 1008.3
20260904074550 63 297 0.0 0.0 0.00 0.00 0.00 96 1008.5
20260904073042 63 297 0.0 0.0 0.00 0.00 0.00 96 1008.8
20260904071541 63 297 0.0 0.0 0.00 0.00 0.00 96 1008.9
20260904070040 63 297 0.0 0.0 0.00 0.00 0.00 96 1008.9
20260904064538 64 297 0.0 0.0 0.00 0.00 0.00 96 1008.9
20260904063041 64 297 0.0 0.0 0.00 0.00 0.00 96 1009.0
20260904061536 64 297 0.0 0.0 0.00 0.00 0.00 96 1009.1
20260904060036 64 297 0.0 0.0 0.00 0.00 0.00 96 1009.2
20260904054532 64 297 0.0 0.0 0.00 0.00 0.00 96 1009.3
20260904053001 65 297 0.0 0.0 0.00 0.00 0.00 95 1009.4
20260904051552 65 297 0.0 0.0 0.00 0.00 0.00 95 1009.3
20260904050028 65 297 0.0 0.0 0.00 0.00 0.00 95 1009.6
20260904044525 66 297 0.0 0.0 0.00 0.00 0.00 95 1009.9
20260904043022 66 297 0.0 0.0 0.00 0.00 0.00 95 1010.1
20260904041523 66 297 0.0 0.0 0.00 0.00 0.00 95 1010.1
20260904040023 66 297 0.0 0.0 0.00 0.00 0.00 95 1010.2
20260904034518 67 297 0.0 0.0 0.00 0.00 0.00 95 1010.2
20260904033018 67 297 0.0 0.0 0.00 0.00 0.00 95 1010.3
20260904031517 67 297 0.0 0.0 0.00 0.00 0.00 95 1010.3
20260904030017 68 297 0.0 0.0 0.00 0.00 0.00 95 1010.3
20260904024516 68 297 0.0 0.0 0.00 0.00 0.00 95 1010.3
20260904023015 68 297 0.0 0.0 0.00 0.00 0.00 94 1010.5
20260904021517 68 297 0.0 0.0 0.00 0.00 0.00 95 1010.7
20260904020015 69 297 0.0 0.0 0.00 0.00 0.00 94 1010.8
20260904014514 69 297 0.0 0.0 0.00 0.00 0.00 94 1010.8
20260904013015 69 297 0.0 0.0 0.00 0.00 0.00 93 1011.0
20260904011517 69 297 0.0 0.0 0.00 0.00 0.00 93 1011.2
20260904010033 70 297 0.0 0.0 0.00 0.00 0.00 93 1010.9
20260904004513 70 297 0.0 0.0 0.00 0.00 0.00 92 1010.9
20260904003014 71 297 0.0 0.0 0.00 0.00 0.00 92 1010.5
20260904001513 71 297 0.0 0.0 0.00 0.00 0.00 92 1010.5
20260904000012 72 297 0.0 0.0 0.00 0.00 0.00 91 1010.2
20260903234511 72 297 0.0 0.0 0.00 0.00 0.00 90 1010.4
20260903233009 73 297 0.0 0.0 0.00 0.00 0.00 90 1010.3
20260903231509 74 297 0.0 0.0 0.00 0.00 0.00 89 1010.4
20260903230010 74 297 0.0 0.0 0.00 0.00 0.00 88 1010.0
20260903224505 75 65 0.0 0.0 0.00 0.00 0.00 88 1010.2
20260903223009 75 65 0.0 0.0 0.00 0.00 0.00 88 1010.3
20260903221505 76 65 0.0 0.0 0.00 0.00 0.00 88 1010.6
20260903220004 76 65 0.0 0.0 0.00 0.00 0.00 87 1010.4
20260903214503 76 65 0.0 0.0 0.00 0.00 0.00 88 1010.4
20260903213009 76 65 0.0 0.0 0.00 0.00 0.00 87 1010.2
20260903211502 76 65 0.0 0.0 0.00 0.00 0.00 87 1010.3
20260903210001 76 65 0.0 0.0 0.00 0.00 0.00 88 1010.2
20260903204618 76 65 0.0 0.0 0.00 0.00 0.00 87 1010.3
20260903203100 77 65 0.0 0.0 0.00 0.00 0.00 85 1010.4
20260903201558 77 65 0.0 0.0 0.00 0.00 0.00 85 1010.6
20260903194555 77 65 0.0 0.0 0.00 0.00 0.00 86 1010.6
20260903193054 77 65 0.0 0.0 0.00 0.00 0.00 87 1010.7
20260903191551 76 65 0.0 0.0 0.00 0.00 0.00 87 1010.9
20260903190050 76 65 0.0 0.0 0.00 0.00 0.00 89 1011.0
20260903184549 76 194 0.0 0.0 0.00 0.00 0.00 89 1011.1
20260903183047 76 194 0.0 0.0 0.00 0.00 0.00 89 1011.1
20260903181546 76 194 0.0 0.0 0.00 0.00 0.00 88 1011.4
20260903180049 77 195 0.0 0.0 0.00 0.00 0.00 87 1011.4
20260903174545 77 195 0.0 0.0 0.00 0.00 0.00 87 1011.4
20260903173043 76 199 0.0 0.0 0.00 0.00 0.00 88 1011.4
20260903171538 74 239 0.0 0.0 0.00 0.00 0.00 93 1011.6
20260903170035 73 227 0.0 0.0 0.00 0.00 0.00 96 1011.7
20260903164530 72 225 0.0 0.0 0.00 0.00 0.00 97 1011.5
20260903163029 71 225 0.0 0.0 0.00 0.00 0.00 97 1011.4
20260903161531 71 225 0.0 0.0 0.00 0.00 0.00 98 1011.5
20260903160051 71 225 0.0 0.0 0.00 0.00 0.00 98 1011.7
20260903154523 71 225 0.0 0.0 0.00 0.00 0.00 98 1011.9
20260903153022 70 225 0.0 0.0 0.00 0.00 0.00 98 1012.2
20260903151523 70 225 0.0 0.0 0.00 0.00 0.00 98 1012.3
20260903150025 70 224 0.0 0.0 0.00 0.00 0.00 98 1012.4
20260903144514 69 224 0.0 0.0 0.00 0.00 0.00 98 1012.7
20260903143021 69 223 0.0 0.0 0.00 0.00 0.00 98 1012.8
20260903141514 68 224 0.0 0.0 0.00 0.00 0.00 98 1012.9
20260903140117 68 223 0.0 0.0 0.00 0.00 0.00 98 1013.2
20260903134531 68 222 0.0 0.0 0.00 0.00 0.00 98 1013.2
20260903133115 67 222 0.0 0.0 0.00 0.00 0.00 98 1013.3
20260903131525 66 222 0.0 0.0 0.00 0.00 0.00 98 1013.1
20260903130001 66 222 0.0 0.0 0.00 0.00 0.00 97 1013.3
20260903124554 65 222 0.0 0.0 0.00 0.00 0.00 97 1013.3
20260903123006 65 222 0.0 0.0 0.00 0.00 0.00 97 1013.5
20260903121549 65 222 0.0 0.0 0.00 0.00 0.00 97 1013.7
20260903120005 65 222 0.0 0.0 0.00 0.00 0.00 97 1013.9
20260903114553 64 222 0.0 0.0 0.00 0.00 0.00 97 1014.0
20260903113007 64 225 0.0 0.0 0.00 0.00 0.00 97 1014.1
20260903111602 64 225 0.0 0.0 0.00 0.00 0.00 97 1014.2
20260903110014 64 274 0.0 0.0 0.00 0.00 0.00 97 1014.1
20260903104612 63 274 0.0 0.0 0.00 0.00 0.00 96 1013.8
20260903103015 63 274 0.0 0.0 0.00 0.00 0.00 96 1013.7
20260903101605 62 274 0.0 0.0 0.00 0.00 0.00 96 1013.7
20260903100009 62 277 0.0 0.0 0.00 0.00 0.00 95 1013.6
20260903094610 62 277 0.0 0.0 0.00 0.00 0.00 95 1013.9
20260903093019 62 277 0.0 0.0 0.00 0.00 0.00 95 1014.0
20260903091602 62 277 0.0 0.0 0.00 0.00 0.00 94 1014.1
20260903090024 62 277 0.0 0.0 0.00 0.00 0.00 94 1014.0
20260903084630 62 277 0.0 0.0 0.00 0.00 0.00 93 1014.3
20260903083032 62 277 0.0 0.0 0.00 0.00 0.00 93 1014.9